Location: Ladrillo (historical)
(32.8195°N, 117.2231°W)
Time: 04:14:16
(UTC+00:00)

FALCON 9 R/B - Pass Details

Date: 26 May 2022
Orbit: 297 x 9970 km, 34.5° (Epoch: 04 July)

Event Time Altitude Azimuth Distance (km) Brightness Sun altitude
Rises 11:58:35 0° 291° (WNW) 8,594 7.0 -9.1°
Reaches altitude 10° 12:08:14 10° 279° (W) 5,526 5.9 -7.4°
Maximum altitude 12:16:38 19° 242° (WSW) 2,940 4.4 -5.9°
Drops below altitude 10° 12:20:57 10° 198° (SSW) 2,560 4.3 -5.1°
Sets 12:23:19 0° 176° (S) 2,955 4.8 -4.6°
